Location: L�beck
(53.8752°N, 10.6787°E)
Time: 06:55:44
(UTC+01:00)

ISS - Pass Details

Date: 12 November 2017
Orbit: 401 x 407 km, 51.6° (Epoch: 25 November)

Event Time Altitude Azimuth Distance (km) Brightness Sun altitude
Exits shadow 04:20:17 14° 103° (ESE) 1,231 -0.7 -29.1°
Drops below altitude 10° 04:20:51 10° 101° (E) 1,457 -0.2 -29.0°
Sets 04:22:56 0° 97° (E) 2,316 1.1 -28.7°
